Location: Unspecified
(0.0000°N, 0.0000°E)
Time: 02:23:12
(UTC+00:00)

Transit 4A - Pass Details

Date: 18 December 2018
Orbit: 868 x 977 km, 66.8° (Epoch: 16 January)

Event Time Altitude Azimuth Distance (km) Brightness Sun altitude
Rises 00:36:04 0° 185° (S) 3,504 - -64.7°
Reaches altitude 10° 00:38:45 10° 177° (S) 2,547 - -64.5°
Maximum altitude 00:44:10 38° 110° (ESE) 1,299 - -63.9°
Drops below altitude 10° 00:49:29 10° 43° (NE) 2,504 - -63.3°
Sets 00:52:05 0° 35° (NE) 3,436 - -63.0°
